Miscellaneous Local Product
Issued by NWS Hastings, NE

Home | Current Version | Previous Version | Text Only | Print | Product List | Glossary On
Versions: 1 2 3 4 5 6 7 8 9 10 11 12 13 14 15 16 17 18 19 20 21 22 23 24 25 26 27 28 29 30 31 32 33 34 35 36 37 38 39 40 41 42 43 44 45 46 47 48 49 50
000
AXUS43 KGID 241102
MISGRI

GID CWA HOURLY WEATHER ROUNDUP
NATIONAL WEATHER SERVICE HASTINGS NE
600 AM CDT MON JUL 24 2017

NOTE: "FAIR" INDICATES FEW OR NO CLOUDS BELOW 12,000 FEET WITH NO
SIGNIFICANT WEATHER AND/OR OBSTRUCTIONS TO VISIBILITY.

...SOUTH CENTRAL NEBRASKA...

CITY           SKY/WX    TMP DP  RH WIND       PRES   REMARKS
GRAND ISLAND   CLEAR     65  62  90 SE5       30.04R
HASTINGS       CLEAR     68  60  75 SE9       30.04R
KEARNEY        CLEAR     64  62  93 SE6       30.03R
ORD            PTCLDY    63  58  83 SE3       30.02R
YORK           CLEAR     63  63 100 CALM      30.03S
AURORA         CLEAR     63  61  96 SE5       30.02S
LEXINGTON      MOCLDY    66  62  86 SE5       30.03S
HOLDREGE       PTCLDY    65  61  89 SE6       30.02S
HEBRON         CLEAR     65  63  93 CALM      30.02R

...NEBRASKA PANHANDLE...

CITY           SKY/WX    TMP DP  RH WIND       PRES   REMARKS
CHADRON        PTCLDY    77  51  40 S13       29.89S
ALLIANCE       CLOUDY    70  54  56 S13       29.99S
SCOTTSBLUFF    PTCLDY    76  56  49 SE9       29.98R
SIDNEY         CLEAR     61  55  81 S9        30.06S

...WESTERN AND NORTH CENTRAL NEBRASKA...

CITY           SKY/WX    TMP DP  RH WIND       PRES   REMARKS
VALENTINE      CLEAR     67  57  70 SE8       29.99F
AINSWORTH      CLEAR     64  59  83 SE8       30.01F
ONEILL         CLEAR     61  60  95 S5        30.03S
BROKEN BOW     CLEAR     64  60  87 SE6       30.03S
IMPERIAL       CLEAR     63  55  75 SW6       30.03R
NORTH PLATTE   CLEAR     64  63  96 E8        30.02R
MCCOOK         CLEAR     65  65 100 E3        30.02R FOG

...EASTERN NEBRASKA...

CITY           SKY/WX    TMP DP  RH WIND       PRES   REMARKS
NORFOLK        CLEAR     60  57  89 SE5       30.03S
SO SIOUX CITY  CLEAR     57  56  96 S3        30.04R FOG
TEKAMAH        CLEAR     58  55  90 N5        30.04R
COLUMBUS       CLEAR     60  59  96 CALM      30.04R
ALBION         PTCLDY    63  60  92 SE5       30.04S
OMAHA EPPLEY   CLEAR     63  59  87 N5        30.02S
OFFUTT AFB     CLEAR     60  59  95 CALM      30.02R
MILLARD        CLEAR     65  62  93 CALM      30.03R
LINCOLN        CLEAR     62  60  93 N6        30.03R
NEBRASKA CITY  CLEAR     63  63 100 CALM      30.02R
BEATRICE       CLEAR     65  62  88 E5        30.01R
FALLS CITY     CLEAR     64  61  90 CALM      30.00R

...NORTHERN KANSAS...

CITY           SKY/WX    TMP DP  RH WIND       PRES   REMARKS
GOODLAND       CLEAR     69  61  75 S13       30.06F
HILL CITY      CLEAR     64  64 100 CALM      30.02R FOG
NORTON         SUNNY     68  63  83 E5        30.01S
PHILLIPSBURG   CLEAR     66  66 100 NE6       30.01S
SMITH CENTER   CLEAR     66  61  82 E9        30.01R
HAYS             N/A     64  60  87 CALM      30.01R
RUSSELL        CLEAR     68  64  87 E3        29.99R
CONCORDIA      CLEAR     67  66  97 E5        30.00R
SALINA         CLEAR     73  69  87 S3        29.97F
TOPEKA         CLOUDY    74  69  85 CALM      29.98R



USA.gov is the U.S. government's official web portal to all federal, state and local government web resources and services.